Location: Julian California
(33.0790°N, 116.6010°W)
Time: 07:36:21
(UTC-07:00)

Cosmos 1892 Rocket - Pass Details

Date: 14 June 2018
Orbit: 606 x 633 km, 82.5° (Epoch: 22 September)

Event Time Altitude Azimuth Distance (km) Brightness Sun altitude
Rises 20:45:33 0° 193° (SSW) 2,850 6.7 -9.5°
Reaches altitude 10° 20:47:46 10° 196° (SSW) 1,954 5.9 -9.9°
Maximum altitude 20:52:03 63° 278° (W) 687 4.1 -10.6°
Drops below altitude 10° 20:56:24 10° 359° (N) 1,982 6.7 -11.3°
Sets 20:58:40 0° 3° (N) 2,896 7.5 -11.7°
